TCNTA LTAI-LTFG

Flight info

Callsign TCNTA
Flight time 0h 30m
Altitude 11000
Route MANAV DCT UTUSO
Aircraft C208/L-SDFGR/C

Departure

Time 2026-05-09 09:36
Airport Antalya International Airport (LTAI)

Arrival

Time 2026-05-09 10:07
Airport Gazipaşa-Alanya Airport (LTFG)
Time Latitude Longitude Altitude Speed Heading
2026-05-09 09:16 36.88237 30.79580 191 ft 0 kts 187°
2026-05-09 09:19 36.88238 30.79580 191 ft 0 kts 187°
2026-05-09 09:25 36.88239 30.79580 191 ft 0 kts 187°
2026-05-09 09:28 36.88229 30.79582 191 ft 4 kts 142°
2026-05-09 09:29 36.88231 30.79649 197 ft 10 kts 21°
2026-05-09 09:29 36.88316 30.79660 197 ft 13 kts
2026-05-09 09:29 36.88395 30.79651 194 ft 13 kts
2026-05-09 09:29 36.88510 30.79666 194 ft 20 kts
2026-05-09 09:30 36.88647 30.79687 197 ft 19 kts
2026-05-09 09:30 36.88780 30.79704 195 ft 19 kts
2026-05-09 09:30 36.88863 30.79772 191 ft 15 kts 96°
2026-05-09 09:30 36.88850 30.79910 191 ft 18 kts 96°
2026-05-09 09:31 36.88836 30.80082 191 ft 22 kts 97°
2026-05-09 09:31 36.88819 30.80274 191 ft 24 kts 97°
2026-05-09 09:31 36.88802 30.80459 191 ft 18 kts 95°
2026-05-09 09:32 36.88949 30.80605 191 ft 19 kts
2026-05-09 09:32 36.89073 30.80635 194 ft 15 kts 32°
2026-05-09 09:32 36.89133 30.80691 190 ft 13 kts 36°
2026-05-09 09:32 36.89196 30.80747 193 ft 8 kts 35°
2026-05-09 09:33 36.89213 30.80762 189 ft 0 kts 36°
2026-05-09 09:34 36.89219 30.80768 196 ft 5 kts 35°
2026-05-09 09:34 36.89277 30.80819 193 ft 13 kts 35°
2026-05-09 09:34 36.89354 30.80869 188 ft 13 kts 26°
2026-05-09 09:36 36.88517 30.80821 353 ft 82 kts 177°
2026-05-09 09:36 36.87915 30.80823 569 ft 91 kts 180°
2026-05-09 09:36 36.87306 30.80845 892 ft 88 kts 177°
2026-05-09 09:37 36.86679 30.80856 1195 ft 90 kts 172°
2026-05-09 09:37 36.86035 30.80918 1399 ft 99 kts 173°
2026-05-09 09:37 36.85316 30.81033 1592 ft 113 kts 168°
2026-05-09 09:37 36.84540 30.81401 1778 ft 130 kts 139°
2026-05-09 09:38 36.84197 30.82410 2075 ft 126 kts 90°
2026-05-09 09:38 36.84298 30.83491 2357 ft 128 kts 81°
2026-05-09 09:38 36.84275 30.84603 2653 ft 125 kts 92°
2026-05-09 09:38 36.84129 30.85700 2859 ft 131 kts 101°
2026-05-09 09:39 36.83930 30.86792 3151 ft 129 kts 103°
2026-05-09 09:39 36.83672 30.87889 3354 ft 134 kts 105°
2026-05-09 09:39 36.83386 30.88994 3584 ft 134 kts 108°
2026-05-09 09:39 36.82978 30.90043 3782 ft 138 kts 114°
2026-05-09 09:40 36.82708 30.91167 4078 ft 133 kts 102°
2026-05-09 09:40 36.82443 30.92259 4374 ft 130 kts 106°
2026-05-09 09:40 36.82153 30.93316 4670 ft 128 kts 107°
2026-05-09 09:40 36.81861 30.94355 4960 ft 126 kts 107°
2026-05-09 09:41 36.81569 30.95380 5240 ft 125 kts 108°
2026-05-09 09:41 36.81277 30.96398 5523 ft 124 kts 109°
2026-05-09 09:41 36.80985 30.97419 5770 ft 128 kts 109°
2026-05-09 09:41 36.80676 30.98498 5971 ft 135 kts 109°
2026-05-09 09:42 36.80356 30.99618 6181 ft 139 kts 110°
2026-05-09 09:42 36.80026 31.00767 6392 ft 142 kts 110°
2026-05-09 09:42 36.79689 31.01941 6586 ft 145 kts 110°
2026-05-09 09:42 36.79347 31.03134 6785 ft 148 kts 109°
2026-05-09 09:43 36.78998 31.04348 6977 ft 150 kts 109°
2026-05-09 09:43 36.78645 31.05577 7174 ft 151 kts 109°
2026-05-09 09:43 36.78287 31.06823 7362 ft 153 kts 109°
2026-05-09 09:43 36.77926 31.08079 7565 ft 155 kts 109°
2026-05-09 09:44 36.77561 31.09344 7758 ft 156 kts 109°
2026-05-09 09:44 36.77194 31.10620 7952 ft 157 kts 109°
2026-05-09 09:44 36.76824 31.11903 8149 ft 158 kts 109°
2026-05-09 09:44 36.76453 31.13194 8346 ft 158 kts 109°
2026-05-09 09:45 36.76078 31.14489 8546 ft 159 kts 109°
2026-05-09 09:45 36.75703 31.15792 8746 ft 160 kts 109°
2026-05-09 09:45 36.75325 31.17101 8945 ft 161 kts 109°
2026-05-09 09:45 36.74945 31.18414 9145 ft 161 kts 109°
2026-05-09 09:46 36.74570 31.19710 9364 ft 160 kts 109°
2026-05-09 09:46 36.74195 31.21006 9618 ft 158 kts 109°
2026-05-09 09:46 36.73825 31.22286 9882 ft 156 kts 109°
2026-05-09 09:46 36.73458 31.23552 10111 ft 155 kts 108°
2026-05-09 09:47 36.73093 31.24811 10336 ft 154 kts 109°
2026-05-09 09:47 36.72731 31.26057 10558 ft 153 kts 108°
2026-05-09 09:47 36.72366 31.27320 10723 ft 156 kts 108°
2026-05-09 09:47 36.72115 31.28187 10833 ft 158 kts 109°
2026-05-09 09:48 36.71612 31.29928 10953 ft 168 kts 109°
2026-05-09 09:48 36.71339 31.30875 10965 ft 175 kts 109°
2026-05-09 09:48 36.70916 31.32338 10970 ft 184 kts 109°
2026-05-09 09:48 36.70481 31.33839 10980 ft 189 kts 109°
2026-05-09 09:49 36.70025 31.35384 11039 ft 189 kts 112°
2026-05-09 09:49 36.69298 31.36679 11273 ft 177 kts 134°
2026-05-09 09:49 36.68507 31.37782 11568 ft 168 kts 131°
2026-05-09 09:49 36.67730 31.38931 11583 ft 178 kts 131°
2026-05-09 09:50 36.66929 31.40076 11827 ft 170 kts 132°
2026-05-09 09:50 36.66160 31.41169 12015 ft 169 kts 132°
2026-05-09 09:50 36.65361 31.42300 12061 ft 177 kts 132°
2026-05-09 09:50 36.64547 31.43659 11506 ft 207 kts 122°
2026-05-09 09:51 36.63761 31.45160 11465 ft 205 kts 123°
2026-05-09 09:51 36.62901 31.46562 11341 ft 204 kts 127°
2026-05-09 09:51 36.62008 31.48019 10968 ft 216 kts 136°
2026-05-09 09:51 36.60828 31.49095 10959 ft 206 kts 148°
2026-05-09 09:52 36.59752 31.50204 10967 ft 202 kts 135°
2026-05-09 09:52 36.58838 31.51516 10958 ft 199 kts 129°
2026-05-09 09:52 36.57949 31.52830 10957 ft 197 kts 131°
2026-05-09 09:52 36.57047 31.54109 10959 ft 196 kts 131°
2026-05-09 09:53 36.56144 31.55379 10961 ft 195 kts 131°
2026-05-09 09:53 36.55246 31.56646 10960 ft 197 kts 131°
2026-05-09 09:53 36.54337 31.57931 10961 ft 199 kts 131°
2026-05-09 09:53 36.53419 31.59227 10977 ft 199 kts 131°
2026-05-09 09:54 36.52506 31.60518 10991 ft 200 kts 131°
2026-05-09 09:54 36.51585 31.61816 10989 ft 201 kts 131°
2026-05-09 09:54 36.50661 31.63119 10990 ft 201 kts 131°
2026-05-09 09:54 36.49736 31.64423 10990 ft 201 kts 131°
2026-05-09 09:55 36.48808 31.65731 10990 ft 202 kts 131°
2026-05-09 09:55 36.47881 31.67037 10989 ft 201 kts 131°
2026-05-09 09:55 36.46957 31.68339 10945 ft 203 kts 131°
2026-05-09 09:55 36.45999 31.69690 10686 ft 212 kts 131°
2026-05-09 09:56 36.45031 31.71068 10423 ft 211 kts 129°
2026-05-09 09:56 36.44217 31.72571 10166 ft 209 kts 121°
2026-05-09 09:56 36.43440 31.74091 9904 ft 208 kts 122°
2026-05-09 09:56 36.42656 31.75592 9621 ft 207 kts 122°
2026-05-09 09:57 36.41873 31.77083 9330 ft 206 kts 122°
2026-05-09 09:57 36.41094 31.78567 9049 ft 204 kts 122°
2026-05-09 09:57 36.40323 31.80040 8770 ft 203 kts 122°
2026-05-09 09:57 36.39555 31.81504 8498 ft 201 kts 122°
2026-05-09 09:58 36.38794 31.82955 8221 ft 200 kts 122°
2026-05-09 09:58 36.38039 31.84396 7950 ft 199 kts 122°
2026-05-09 09:58 36.37289 31.85824 7676 ft 197 kts 122°
2026-05-09 09:58 36.36546 31.87238 7407 ft 195 kts 122°
2026-05-09 09:59 36.35807 31.88644 7139 ft 194 kts 122°
2026-05-09 09:59 36.35070 31.90049 6874 ft 194 kts 122°
2026-05-09 09:59 36.34344 31.91429 6619 ft 193 kts 122°
2026-05-09 09:59 36.33615 31.92816 6344 ft 192 kts 122°
2026-05-09 10:00 36.32890 31.94193 6075 ft 190 kts 122°
2026-05-09 10:00 36.32171 31.95558 5794 ft 187 kts 122°
2026-05-09 10:00 36.31460 31.96907 5520 ft 186 kts 122°
2026-05-09 10:00 36.30756 31.98244 5248 ft 185 kts 122°
2026-05-09 10:01 36.30055 31.99573 4980 ft 184 kts 122°
2026-05-09 10:01 36.29359 32.00894 4706 ft 182 kts 122°
2026-05-09 10:01 36.28667 32.02209 4431 ft 182 kts 123°
2026-05-09 10:01 36.27976 32.03516 4155 ft 181 kts 123°
2026-05-09 10:02 36.27329 32.04846 3879 ft 180 kts 112°
2026-05-09 10:02 36.27131 32.06357 3621 ft 178 kts 87°
2026-05-09 10:02 36.27312 32.07866 3356 ft 176 kts 80°
2026-05-09 10:02 36.27496 32.09365 3083 ft 176 kts 82°
2026-05-09 10:03 36.27672 32.10862 2813 ft 175 kts 82°
2026-05-09 10:03 36.27847 32.12317 2544 ft 175 kts 82°
2026-05-09 10:03 36.28027 32.13808 2273 ft 174 kts 82°
2026-05-09 10:03 36.28202 32.15278 2001 ft 171 kts 82°
2026-05-09 10:04 36.28371 32.16699 1813 ft 163 kts 82°
2026-05-09 10:04 36.28529 32.18048 1608 ft 152 kts 82°
2026-05-09 10:04 36.28668 32.19254 1440 ft 135 kts 82°
2026-05-09 10:04 36.28805 32.20386 1268 ft 133 kts 81°
2026-05-09 10:05 36.28943 32.21477 1104 ft 126 kts 81°
2026-05-09 10:05 36.29080 32.22545 934 ft 124 kts 82°
2026-05-09 10:05 36.29150 32.23624 797 ft 127 kts 83°
2026-05-09 10:05 36.29311 32.24681 648 ft 123 kts 85°
2026-05-09 10:06 36.29421 32.25709 438 ft 120 kts 80°
2026-05-09 10:06 36.29519 32.26623 323 ft 93 kts 82°
2026-05-09 10:06 36.29614 32.27381 240 ft 85 kts 83°
2026-05-09 10:06 36.29689 32.28067 126 ft 78 kts 82°
2026-05-09 10:07 36.29762 32.28675 83 ft 64 kts 80°
2026-05-09 10:07 36.29819 32.29161 103 ft 48 kts 82°
2026-05-09 10:07 36.29864 32.29536 115 ft 40 kts 80°
2026-05-09 10:07 36.29900 32.29844 121 ft 31 kts 82°
2026-05-09 10:08 36.29933 32.30088 126 ft 24 kts 81°
2026-05-09 10:08 36.29872 32.30154 126 ft 13 kts 174°
2026-05-09 10:08 36.29831 32.30211 126 ft 12 kts 82°
2026-05-09 10:08 36.29810 32.30290 126 ft 7 kts 167°
2026-05-09 10:09 36.29786 32.30294 126 ft 0 kts 172°